Regional Weather Roundup
Issued by NWS

Home | Current Version | Previous Version | Graphics & Text | Print | Product List | Glossary On
Versions: 1 2 3 4 5 6 7 8 9 10 11 12 13 14 15 16 17 18 19 20 21 22 23 24 25 26 27 28 29 30 31 32 33 34 35 36 37 38 39 40 41 42 43 44 45 46 47 48 49 50
559
ASUS43 KMKX 282121
RWRWI

WISCONSIN REGIONAL WEATHER ROUNDUP
NATIONAL WEATHER SERVICE MILWAUKEE/SULLIVAN WI
400 PM CDT TUE MAR 28 2017

NOTE: "FAIR" INDICATES FEW OR NO CLOUDS BELOW 12,000 FEET WITH NO
SIGNIFICANT WEATHER AND/OR OBSTRUCTIONS TO VISIBILITY.

WIZ001-002-006>008-014>016-023>028-282200-
NORTHWEST WISCONSIN

CITY           SKY/WX    TMP DP  RH WIND       PRES   REMARKS
SUPERIOR ARPT  SUNNY     61  31  31 E8        30.15S
ASHLAND        SUNNY     60  32  34 N12       30.15F
HAYWARD        SUNNY     62  16  16 VRB3      30.14S
SIREN          SUNNY     62  17  18 CALM      30.14S
CUMBERLAND     SUNNY     59  23  25 CALM      30.14F
RICE LAKE      SUNNY     59  25  26 CALM      30.16S
CHETEK         SUNNY     58  27  29 CALM      30.14F
LADYSMITH      SUNNY     59  26  28 CALM      30.16S
EAU CLAIRE     SUNNY     60  27  28 CALM      30.13S
MENOMONIE      SUNNY     61  31  33 CALM      30.14S
NEW RICHMOND   SUNNY     62  29  29 CALM      30.14F
OSCEOLA        MOSUNNY   62  29  29 NW5       30.16F
$$

WIZ003>005-009-010-017-018-282200-
NORTH CENTRAL WISCONSIN

CITY           SKY/WX    TMP DP  RH WIND       PRES   REMARKS
MANITOWISH WTR SUNNY     56  25  29 SW3       30.14S
ARBOR VITAE    MOSUNNY   57  27  31 CALM      30.13S
WOODRUFF       MOSUNNY   57  27  31 CALM      30.13S
RHINELANDER    SUNNY     59  25  27 VRB3      30.14F
EAGLE RIVER    SUNNY     56  23  27 NW6       30.13F
LAND O LAKES   SUNNY     58  23  26 SW6       30.15S
PHILLIPS       SUNNY     58  22  25 CALM      30.13S
TOMAHAWK       SUNNY     59  23  25 E6        30.14F
MEDFORD        SUNNY     55  29  37 CALM      30.14S
MERRILL        SUNNY     58  28  31 S5        30.14F
$$

WIZ029-030-035-036-043>047-282200-
CENTRAL WISCONSIN

CITY           SKY/WX    TMP DP  RH WIND       PRES   REMARKS
WAUSAU         SUNNY     57  27  31 SW5       30.13S
MOSINEE        SUNNY     57  28  33 VRB6      30.15S
MARSHFIELD     SUNNY     55  36  48 E7        30.14S
STEVENS POINT  SUNNY     56  30  36 E3        30.15S
WAUPACA        SUNNY     60  29  30 NE6       30.15F
WAUTOMA        SUNNY     58  32  37 E10       30.15S
WISC RAPIDS    SUNNY     60  33  36 E8        30.15F
CAMP DOUGLAS   MOSUNNY   61  36  39 N6        30.13F
$$

WIZ011>013-019>022-031-037>040-048>050-282200-
NORTHEAST WISCONSIN

CITY           SKY/WX    TMP DP  RH WIND       PRES   REMARKS
ANTIGO         SUNNY     55  30  38 CALM      30.15S
SHAWANO        SUNNY     57  33  41 NE5       30.16S
OCONTO         SUNNY     44  35  69 SE6       30.19R
STURGEON BAY   SUNNY     46  37  71 E6        30.23R
GREEN BAY      SUNNY     49  37  63 NE9       30.17F
MANITOWOC      PTSUNNY   41  37  86 NE8       30.19S
APPLETON       MOSUNNY   54  27  35 NE9       30.14S
CLINTONVILLE   SUNNY     57  30  35 SE6       30.15S
OSHKOSH        SUNNY     51  36  56 NE9       30.16R
$$

WIZ032>034-041-042-053>061-282200-
SOUTHWEST WISCONSIN

CITY           SKY/WX    TMP DP  RH WIND       PRES   REMARKS
LA CROSSE      SUNNY     61  39  44 NW7       30.13F
SPARTA         SUNNY     60  34  37 E8        30.14F
VIROQUA        SUNNY     58  36  42 CALM      30.13S
BOSCOBEL       SUNNY     58  36  43 E8        30.14F
PRAIRIE DU CHI SUNNY     54  36  51 SE8       30.14S
PLATTEVILLE    SUNNY     50  42  74 CALM      30.15S
$$

WIZ056-057-062-063-064-067-068-282200-
SOUTH CENTRAL WISCONSIN

CITY           SKY/WX    TMP DP  RH WIND       PRES   REMARKS
REEDSBURG      SUNNY     57  36  45 NE3       30.13F
BARABOO/DELLS  SUNNY     57  34  41 CALM      30.13F
LONE ROCK      SUNNY     58  37  45 E8        30.13F
MINERAL POINT  SUNNY     55  39  54 NE3       30.13S
MADISON        MOSUNNY   56  39  53 NE14      30.13S
MIDDLETON      SUNNY     57  39  51 NE9       30.13S
WATERTOWN      SUNNY     56  40  54 N8        30.13R
MONROE         MOSUNNY   54  37  54 E5        30.13S
JANESVILLE     PTSUNNY   57  37  47 VRB6      30.12S
$$

WIZ051-052-058>065-066-070>072-282200-
SOUTHEAST WISCONSIN

CITY           SKY/WX    TMP DP  RH WIND       PRES   REMARKS
MILWAUKEE      CLOUDY    39  33  79 NE10      30.18R WCI  32
WAUKESHA       SUNNY     52  37  58 E9G18     30.15R
MILWAUKEE/TIMM PTSUNNY   39  34  81 NE12      30.18R WCI  32
RACINE         CLOUDY    40  35  83 N10       30.18R WCI  33
KENOSHA        MOSUNNY   46  37  71 E9        30.16R
FOND DU LAC    SUNNY     54  37  52 N10       30.16R
SHEBOYGAN      CLOUDY    38  36  92 E10       30.18R WCI  31
WEST BEND      SUNNY     52  41  66 E10G16    30.15R
JUNEAU         SUNNY     53  38  58 N8        30.15S
$$

LSZ147-162-282200-
LAKE SUPERIOR

STATION/POSITION TIME  TEMP    WIND        PRES    WAVE
                       AIR SEA DIR/SP/G            HT/PER
                 (UTC) (F)     (DEG/KT/KT) (MB)    (FT/S)
DEVILS ISLAND    2100           50/ 12/ 12 1022.6R
PORT WING        2030   49      50/  2/  3 1021.3F
SAXON HARBOR     2040   42     310/  3/  3 1021.7R
$$

LMZ867-665-643>646-282200-
LAKE MICHIGAN

STATION/POSITION TIME  TEMP    WIND        PRES    WAVE
                       AIR SEA DIR/SP/G            HT/PER
                 (UTC) (F)     (DEG/KT/KT) (MB)    (FT/S)
CHAMBERS ISLAND  2040   37      CALM  /  2 1021.7S
NORTHPORT PIER   2040   34      CALM  /  2 1022.4R
SISTER BAY       2021   36     360/ 14/ 15   N/A
KEWAUNEE LAKESHO 2100   36      60/  4/  6 1021.8
SHEBOYGAN LAKESH 2100   34      20/ 13/ 14 1022.7R
PORT WASHINGTON  2040   36      50/ 13/ 16 1022.7S
MILWAUKEE LAKESH 2100   35      30/ 11/ 12   N/A
KENOSHA   LAKESH 2100   36      40/ 12/ 15 1021.7
$$

TC  - TEMPERATURE IN CELSIUS
VSB - VISIBILITY IN STATUTE MILES
WCI - WIND CHILL INDEX
HX  - HEAT INDEX





USA.gov is the U.S. government's official web portal to all federal, state and local government web resources and services.